Weather in Pocatello

United States     42°52′23″N   112°27′00″W
temp.,
°C
wind,
m/s
gust,
m/s
humid.,
%
clouds,
%
prec.,
mm/h
press.,
hPa
HPBL,
m
18 september, sat
sat1800:00+14se68350 0.0 101488
03:00+14sse69290 0.0 101394
06:00+14sse711312 0.0 1013157
09:00+19s714340 0.0 1011927
12:00+24ssw1216265 0.0 10092846
15:00+23s13173360 0.0 10062741
18:00+24ssw10182581 0.0 10043725
21:00+16sw33345 0.0 100817
19 september, sun
sun1900:00+10ssw23565 0.0 101369
03:00+8se336767 0.0 101427
06:00+8w0072100 0.0 101310
09:00+7nw4586100 0.8 1015742
12:00+6se3285100 7.8 1016464
15:00+10w255654 0.2 10131282
18:00+10w895979 1.7 1014963
21:00+7sw410695 0.4 1017312
20 september, mon
mon2000:00+5sw410694 0.4 1018344
03:00+4wsw410704 0.0 1020382
06:00+3ssw22775 0.0 102435
09:00+5wsw35675 0.0 1025641
12:00+10w434713 0.0 10241261
15:00+14wnw44314 0.0 10221977
18:00+13wnw33295 0.0 10231742
21:00+8s22385 0.0 102612
21 september, tue
tue2100:00+7sse22435 0.0 102813
03:00+6sse33465 0.0 102828
06:00+5se33475 0.0 102920
09:00+10se33370 0.0 1028158
12:00+16s23220 0.0 10261196
15:00+20sw34150 0.0 10231677
18:00+20ssw23170 0.0 10221244
21:00+12sse44340 0.0 102436
22 september, wed
wed2200:00+11sse45380 0.0 102457
03:00+10se45380 0.0 102453
06:00+9se453664 0.0 102459
09:00+13sse462643 0.0 1023180
12:00+22s5617100 0.0 10191053
15:00+24sw5815100 0.0 10152423
18:00+24w571531 0.0 10131990
21:00+15s44280 0.0 101642